NJE27X EBCI-EBAW

Flight info

Callsign NJE27X
Flight time 0h 26m
Altitude 10000
Route EBAW
Aircraft PC12/L-SDFGRWY/S

Departure

Time 2026-04-25 09:40
Airport Brussels South Charleroi Airport (EBCI)

Arrival

Time 2026-04-25 10:06
Airport Antwerp International Airport (Deurne) (EBAW)
Time Latitude Longitude Altitude Speed Heading
2026-04-25 09:23 50.46597 4.46370 612 ft 0 kts 245°
2026-04-25 09:35 50.46594 4.46358 612 ft 3 kts 284°
2026-04-25 09:35 50.46612 4.46435 625 ft 17 kts 76°
2026-04-25 09:35 50.46545 4.46569 611 ft 16 kts 197°
2026-04-25 09:36 50.46501 4.46439 615 ft 21 kts 246°
2026-04-25 09:36 50.46444 4.46240 617 ft 21 kts 245°
2026-04-25 09:36 50.46361 4.45957 619 ft 35 kts 246°
2026-04-25 09:36 50.46266 4.45637 622 ft 20 kts 244°
2026-04-25 09:37 50.46233 4.45512 622 ft 20 kts 248°
2026-04-25 09:37 50.46164 4.45278 626 ft 31 kts 246°
2026-04-25 09:37 50.46075 4.44958 626 ft 29 kts 243°
2026-04-25 09:37 50.45979 4.44645 624 ft 28 kts 249°
2026-04-25 09:38 50.45920 4.44452 626 ft 29 kts 237°
2026-04-25 09:38 50.45773 4.44154 633 ft 32 kts 231°
2026-04-25 09:38 50.45698 4.44004 633 ft 22 kts 231°
2026-04-25 09:38 50.45635 4.44089 637 ft 23 kts 57°
2026-04-25 09:39 50.45775 4.44560 628 ft 81 kts 64°
2026-04-25 09:39 50.46093 4.45633 651 ft 127 kts 64°
2026-04-25 09:39 50.46470 4.46935 1166 ft 140 kts 65°
2026-04-25 09:40 50.47627 4.49335 2516 ft 133 kts 51°
2026-04-25 09:40 50.48192 4.50401 3451 ft 127 kts 48°
2026-04-25 09:40 50.48804 4.51547 4099 ft 141 kts 47°
2026-04-25 09:40 50.49438 4.52736 4930 ft 144 kts 47°
2026-04-25 09:41 50.50089 4.53953 5717 ft 147 kts 47°
2026-04-25 09:41 50.50754 4.55195 6535 ft 149 kts 46°
2026-04-25 09:41 50.51429 4.56456 7307 ft 152 kts 46°
2026-04-25 09:41 50.52118 4.57742 8080 ft 155 kts 46°
2026-04-25 09:42 50.52855 4.58983 8848 ft 155 kts 31°
2026-04-25 09:42 50.53869 4.59311 9632 ft 151 kts 348°
2026-04-25 09:42 50.54794 4.58507 10247 ft 164 kts 310°
2026-04-25 09:42 50.55215 4.56648 10334 ft 204 kts 277°
2026-04-25 09:43 50.55265 4.54265 10335 ft 229 kts 272°
2026-04-25 09:43 50.55303 4.51673 10329 ft 244 kts 274°
2026-04-25 09:43 50.55391 4.48975 10322 ft 249 kts 275°
2026-04-25 09:43 50.55491 4.46241 10321 ft 251 kts 275°
2026-04-25 09:44 50.55583 4.43489 10321 ft 252 kts 274°
2026-04-25 09:44 50.55671 4.40738 10319 ft 252 kts 274°
2026-04-25 09:44 50.55759 4.38019 10319 ft 252 kts 274°
2026-04-25 09:44 50.55848 4.35264 10318 ft 252 kts 274°
2026-04-25 09:45 50.55936 4.32510 10319 ft 252 kts 274°
2026-04-25 09:45 50.56023 4.29758 10318 ft 252 kts 274°
2026-04-25 09:45 50.56110 4.27003 10316 ft 252 kts 274°
2026-04-25 09:45 50.56195 4.24246 10315 ft 252 kts 274°
2026-04-25 09:46 50.56281 4.21493 10315 ft 252 kts 274°
2026-04-25 09:46 50.56364 4.18737 10314 ft 252 kts 274°
2026-04-25 09:46 50.56447 4.15984 10261 ft 247 kts 274°
2026-04-25 09:46 50.56526 4.13405 10190 ft 238 kts 274°
2026-04-25 09:47 50.56609 4.10743 10189 ft 247 kts 274°
2026-04-25 09:47 50.56690 4.08020 10196 ft 251 kts 274°
2026-04-25 09:47 50.56769 4.05309 10200 ft 251 kts 274°
2026-04-25 09:47 50.57051 4.02583 10200 ft 250 kts 288°
2026-04-25 09:48 50.57763 4.00090 10199 ft 250 kts 301°
2026-04-25 09:48 50.58848 3.97962 10200 ft 249 kts 315°
2026-04-25 09:48 50.60216 3.96348 10200 ft 250 kts 329°
2026-04-25 09:48 50.61826 3.95305 10202 ft 252 kts 343°
2026-04-25 09:49 50.63567 3.94937 10194 ft 254 kts 357°
2026-04-25 09:49 50.65329 3.95289 10200 ft 257 kts 12°
2026-04-25 09:49 50.66993 3.96362 10190 ft 261 kts 27°
2026-04-25 09:49 50.68453 3.98084 10201 ft 263 kts 38°
2026-04-25 09:50 50.69844 3.99964 10198 ft 263 kts 37°
2026-04-25 09:50 50.71244 4.01841 10204 ft 264 kts 37°
2026-04-25 09:50 50.72640 4.03717 10211 ft 264 kts 37°
2026-04-25 09:50 50.74036 4.05599 10207 ft 264 kts 37°
2026-04-25 09:51 50.75432 4.07482 10206 ft 264 kts 37°
2026-04-25 09:51 50.76828 4.09365 10213 ft 264 kts 37°
2026-04-25 09:51 50.78223 4.11249 10212 ft 264 kts 37°
2026-04-25 09:51 50.79617 4.13132 10219 ft 264 kts 37°
2026-04-25 09:52 50.80993 4.14993 10232 ft 263 kts 37°
2026-04-25 09:52 50.82385 4.16877 10226 ft 263 kts 37°
2026-04-25 09:52 50.83776 4.18763 10238 ft 263 kts 37°
2026-04-25 09:52 50.85168 4.20649 10231 ft 263 kts 37°
2026-04-25 09:53 50.86558 4.22534 10234 ft 263 kts 37°
2026-04-25 09:53 50.87948 4.24423 10240 ft 263 kts 37°
2026-04-25 09:53 50.89341 4.26316 10238 ft 263 kts 37°
2026-04-25 09:53 50.90728 4.28202 10245 ft 263 kts 37°
2026-04-25 09:54 50.92095 4.30064 10251 ft 263 kts 37°
2026-04-25 09:54 50.93485 4.31957 10241 ft 263 kts 37°
2026-04-25 09:54 50.94870 4.33847 10242 ft 263 kts 37°
2026-04-25 09:54 50.96259 4.35740 10247 ft 263 kts 37°
2026-04-25 09:55 50.97648 4.37638 10248 ft 263 kts 37°
2026-04-25 09:55 50.99024 4.39555 10241 ft 263 kts 39°
2026-04-25 09:55 51.00365 4.41531 10240 ft 263 kts 38°
2026-04-25 09:55 51.01806 4.43303 10242 ft 261 kts 31°
2026-04-25 09:56 51.03353 4.44805 10248 ft 260 kts 25°
2026-04-25 09:56 51.04985 4.46020 10246 ft 258 kts 19°
2026-04-25 09:56 51.06682 4.46936 10242 ft 257 kts 12°
2026-04-25 09:56 51.08399 4.47539 10238 ft 255 kts
2026-04-25 09:57 51.10156 4.47836 10238 ft 253 kts 360°
2026-04-25 09:57 51.11845 4.47282 10230 ft 248 kts 334°
2026-04-25 09:57 51.13115 4.45506 10226 ft 247 kts 301°
2026-04-25 09:57 51.13626 4.42902 10231 ft 249 kts 279°
2026-04-25 09:58 51.13706 4.40141 10237 ft 250 kts 272°
2026-04-25 09:58 51.13678 4.37371 10242 ft 250 kts 271°
2026-04-25 09:58 51.13662 4.34600 10246 ft 250 kts 275°
2026-04-25 09:58 51.13881 4.31864 10242 ft 249 kts 281°
2026-04-25 09:59 51.14180 4.29206 9636 ft 238 kts 282°
2026-04-25 09:59 51.14499 4.26520 8320 ft 250 kts 282°
2026-04-25 09:59 51.14825 4.23828 7363 ft 246 kts 282°
2026-04-25 09:59 51.15180 4.21181 6331 ft 243 kts 289°
2026-04-25 10:00 51.16184 4.19087 5277 ft 241 kts 327°
2026-04-25 10:00 51.17747 4.18501 4722 ft 223 kts
2026-04-25 10:00 51.19197 4.18731 4467 ft 196 kts
2026-04-25 10:00 51.20470 4.18760 4328 ft 171 kts 354°
2026-04-25 10:01 51.21570 4.18535 4133 ft 153 kts 360°
2026-04-25 10:01 51.22605 4.18914 3715 ft 154 kts 24°
2026-04-25 10:01 51.23461 4.19910 3346 ft 153 kts 47°
2026-04-25 10:01 51.23976 4.21285 3218 ft 133 kts 69°
2026-04-25 10:02 51.24146 4.22822 3170 ft 150 kts 89°
2026-04-25 10:02 51.23932 4.24418 3150 ft 145 kts 109°
2026-04-25 10:02 51.23585 4.25924 3129 ft 146 kts 107°
2026-04-25 10:02 51.23248 4.27448 3126 ft 147 kts 108°
2026-04-25 10:03 51.22904 4.28984 3086 ft 147 kts 107°
2026-04-25 10:03 51.22539 4.30531 2864 ft 146 kts 110°
2026-04-25 10:03 51.22143 4.32021 2516 ft 146 kts 111°
2026-04-25 10:03 51.21818 4.33512 2450 ft 140 kts 104°
2026-04-25 10:04 51.21540 4.34939 2251 ft 128 kts 106°
2026-04-25 10:04 51.21257 4.36258 2242 ft 119 kts 107°
2026-04-25 10:04 51.20991 4.37472 2087 ft 130 kts 107°
2026-04-25 10:04 51.20663 4.38766 1812 ft 122 kts 111°
2026-04-25 10:05 51.20370 4.40016 1399 ft 121 kts 106°
2026-04-25 10:05 51.20102 4.41295 1020 ft 120 kts 108°
2026-04-25 10:05 51.19847 4.42523 690 ft 111 kts 105°
2026-04-25 10:05 51.19589 4.43695 408 ft 112 kts 108°
2026-04-25 10:06 51.19331 4.44855 152 ft 109 kts 107°
2026-04-25 10:06 51.19091 4.45907 39 ft 92 kts 108°
2026-04-25 10:06 51.18925 4.46652 41 ft 65 kts 109°
2026-04-25 10:06 51.18784 4.47130 38 ft 21 kts 175°
2026-04-25 10:07 51.18744 4.47106 36 ft 10 kts 178°
2026-04-25 10:07 51.18735 4.47108 35 ft 0 kts 165°
2026-04-25 10:07 51.18708 4.47114 35 ft 16 kts 182°
2026-04-25 10:07 51.18615 4.46951 35 ft 19 kts 238°
2026-04-25 10:08 51.18575 4.46726 35 ft 22 kts 274°
2026-04-25 10:08 51.18602 4.46491 35 ft 17 kts 285°
2026-04-25 10:08 51.18636 4.46277 35 ft 25 kts 282°
2026-04-25 10:08 51.18667 4.46087 35 ft 18 kts 288°
2026-04-25 10:09 51.18703 4.45861 35 ft 21 kts 283°
2026-04-25 10:09 51.18737 4.45641 35 ft 21 kts 286°
2026-04-25 10:09 51.18783 4.45481 35 ft 19 kts 345°
2026-04-25 10:09 51.18882 4.45434 35 ft 9 kts 333°
2026-04-25 10:10 51.18877 4.45361 35 ft 13 kts 265°
2026-04-25 10:10 51.18854 4.45337 35 ft 5 kts 146°
2026-04-25 10:10 51.18847 4.45345 35 ft 0 kts 147°